EW4858 Weather Reports


Display with metric or nautical units.
time (UTC)temp
F
wind
direction
speed
MPH
gust
MPH
rain 1hr
in
rain 24hr
in
rain mn
in
humidity
%
barometer
mb
20260507184545 72 332 1.0 5.0 0.00 0.00 0.00 62 1011.6
20260507183041 71 47 2.0 7.0 0.00 0.00 0.00 63 1011.7
20260507181538 70 114 2.0 8.0 0.00 0.00 0.00 64 1011.8
20260507180037 69 44 3.0 7.0 0.00 0.00 0.00 65 1012.0
20260507174541 68 41 1.0 6.0 0.00 0.00 0.00 67 1012.2
20260507173036 68 30 3.0 8.0 0.00 0.00 0.00 69 1012.2
20260507171526 66 104 0.0 5.0 0.00 0.00 0.00 71 1012.3
20260507170022 65 86 3.0 7.0 0.00 0.00 0.00 74 1012.5
20260507164519 65 107 2.0 6.0 0.00 0.00 0.00 76 1012.6
20260507163015 63 121 0.0 7.0 0.00 0.00 0.00 79 1012.8
20260507161512 62 56 1.0 5.0 0.00 0.00 0.00 80 1012.8
20260507160013 61 69 2.0 6.0 0.00 0.00 0.00 81 1012.9
20260507154506 60 61 1.0 4.0 0.00 0.00 0.00 82 1013.0
20260507153006 60 83 1.0 4.0 0.00 0.00 0.00 83 1012.8
20260507151503 59 122 1.0 5.0 0.00 0.00 0.00 84 1012.8
20260507150100 58 134 1.0 4.0 0.00 0.00 0.00 85 1012.7
20260507144603 58 177 0.0 0.0 0.00 0.00 0.00 85 1012.7
20260507143111 57 178 0.0 0.0 0.00 0.00 0.00 87 1012.7
20260507141559 56 178 0.0 0.0 0.00 0.00 0.00 90 1012.6
20260507140100 55 178 0.0 0.0 0.00 0.00 0.00 90 1012.5
20260507134559 53 178 0.0 0.0 0.00 0.00 0.00 91 1012.5
20260507133106 52 178 0.0 4.0 0.00 0.00 0.00 91 1012.4
20260507131612 52 177 0.0 3.0 0.00 0.00 0.00 91 1012.5
20260507130056 52 177 0.0 0.0 0.00 0.00 0.00 90 1012.4
20260507124555 52 177 0.0 0.0 0.00 0.00 0.00 90 1012.2
20260507123055 52 177 0.0 0.0 0.00 0.00 0.00 90 1012.1
20260507121553 52 177 0.0 0.0 0.00 0.00 0.00 90 1012.1
20260507120052 53 177 0.0 0.0 0.00 0.00 0.00 90 1012.1
20260507114551 53 177 0.0 0.0 0.00 0.00 0.00 89 1012.1
20260507113050 53 177 0.0 0.0 0.00 0.00 0.00 89 1012.1
20260507111549 53 177 0.0 0.0 0.00 0.00 0.00 88 1012.1
20260507110046 54 177 0.0 0.0 0.00 0.00 0.00 88 1012.1
20260507104545 54 177 0.0 0.0 0.00 0.00 0.00 88 1012.2
20260507103044 54 177 0.0 0.0 0.00 0.00 0.00 88 1012.3
20260507101544 55 177 0.0 0.0 0.00 0.00 0.00 88 1012.4
20260507100045 55 177 0.0 0.0 0.00 0.00 0.00 88 1012.4
20260507094538 55 168 0.0 0.0 0.00 0.00 0.00 87 1012.5
20260507093043 55 166 0.0 0.0 0.00 0.00 0.00 87 1012.6
20260507091535 55 166 0.0 0.0 0.00 0.00 0.00 87 1012.7
20260507090033 55 166 0.0 0.0 0.00 0.00 0.00 87 1012.8
20260507084530 56 166 0.0 0.0 0.00 0.00 0.00 86 1013.1
20260507083029 56 166 0.0 0.0 0.00 0.00 0.00 86 1013.3
20260507081527 56 166 0.0 0.0 0.00 0.00 0.00 86 1013.3
20260507080034 57 166 0.0 0.0 0.00 0.00 0.00 85 1013.4
20260507074525 57 165 0.0 0.0 0.00 0.00 0.00 85 1013.3
20260507073021 58 163 0.0 0.0 0.00 0.00 0.00 85 1013.4
20260507071548 59 163 1.0 4.0 0.00 0.00 0.00 84 1013.5
20260507070015 59 113 0.0 0.0 0.00 0.00 0.00 84 1013.5
20260507064516 60 113 0.0 3.0 0.00 0.00 0.00 83 1013.7
20260507063015 59 120 0.0 4.0 0.00 0.00 0.00 83 1013.8
20260507061517 59 96 0.0 0.0 0.00 0.00 0.00 82 1013.6
20260507060014 60 97 0.0 0.0 0.00 0.00 0.00 81 1013.7
20260507054514 61 97 0.0 0.0 0.00 0.00 0.00 80 1013.6
20260507053014 61 96 0.0 0.0 0.00 0.00 0.00 80 1013.6
20260507051526 61 97 0.0 0.0 0.00 0.00 0.00 80 1013.6
20260507050013 61 96 0.0 0.0 0.00 0.00 0.00 79 1013.6
20260507044512 61 98 0.0 3.0 0.00 0.00 0.00 78 1013.6
20260507043012 62 78 1.0 5.0 0.00 0.00 0.00 77 1013.4
20260507041511 62 78 2.0 5.0 0.00 0.00 0.00 76 1013.3
20260507040009 63 78 0.0 4.0 0.00 0.00 0.00 74 1013.3
20260507034521 63 94 1.0 5.0 0.00 0.00 0.00 73 1013.1
20260507033015 63 107 3.0 7.0 0.00 0.00 0.00 70 1013.0
20260507031508 64 121 3.0 7.0 0.00 0.00 0.00 71 1012.8
20260507030008 64 87 2.0 6.0 0.00 0.00 0.00 71 1012.8
20260507024507 65 86 2.0 7.0 0.00 0.00 0.00 70 1012.5
20260507023016 65 85 4.0 9.0 0.00 0.00 0.00 69 1012.5
20260507021507 66 59 3.0 9.0 0.00 0.00 0.00 67 1012.4
20260507020007 67 90 5.0 11.0 0.00 0.00 0.00 66 1012.3
20260507014511 68 52 5.0 10.0 0.00 0.00 0.00 64 1012.2
20260507013005 68 88 5.0 10.0 0.00 0.00 0.00 62 1012.2
20260507011506 69 85 5.0 11.0 0.00 0.00 0.00 62 1012.1
20260507010004 69 77 6.0 11.0 0.00 0.00 0.00 60 1012.1
20260507004504 70 116 5.0 12.0 0.00 0.00 0.00 60 1012.0
20260507003004 69 109 5.0 11.0 0.00 0.00 0.00 60 1012.0
20260507001502 70 102 8.0 13.0 0.00 0.00 0.00 60 1011.8
20260507000002 70 112 5.0 9.0 0.00 0.00 0.00 60 1011.7
20260506234501 70 121 6.0 13.0 0.00 0.00 0.00 60 1011.6
20260506233001 71 121 6.0 13.0 0.00 0.00 0.00 59 1011.6
20260506231603 71 101 6.0 13.0 0.00 0.00 0.00 58 1011.6
20260506231501 71 88 7.0 16.0 0.00 0.00 0.00 58 1011.6
20260506230104 72 108 6.0 12.0 0.00 0.00 0.00 57 1011.6
20260506224559 72 104 7.0 11.0 0.00 0.00 0.00 56 1011.7
20260506223110 73 121 6.0 10.0 0.00 0.00 0.00 56 1011.8
20260506221557 73 138 4.0 11.0 0.00 0.00 0.00 55 1011.9
20260506220056 73 78 6.0 13.0 0.00 0.00 0.00 56 1011.9
20260506214603 74 69 6.0 13.0 0.00 0.00 0.00 56 1012.1
20260506213054 74 66 7.0 11.0 0.00 0.00 0.00 54 1012.2
20260506211602 74 105 8.0 14.0 0.00 0.00 0.00 54 1012.1
20260506210056 74 101 8.0 17.0 0.00 0.00 0.00 55 1012.1
20260506204553 74 57 10.0 16.0 0.00 0.00 0.00 55 1012.3
20260506203052 74 46 6.0 11.0 0.00 0.00 0.00 54 1012.3
20260506201548 74 92 6.0 13.0 0.00 0.00 0.00 52 1012.4
20260506200050 74 51 5.0 11.0 0.00 0.00 0.00 50 1012.6
20260506194543 73 35 5.0 10.0 0.00 0.00 0.00 52 1012.8
20260506193141 72 51 5.0 10.0 0.00 0.00 0.00 52 1012.9
20260506191538 71 55 4.0 10.0 0.00 0.00 0.00 53 1013.1
20260506190035 70 88 4.0 10.0 0.00 0.00 0.00 55 1013.3